Seven Sins — ZCOD6 — position and weather

sailwx.info

Track history (hours):
 
Tides and Currents Weather Stations Pressure Air Temp Water Temp Dewpoint Dewpoint Depression Visibility Wind Speed Wind Dir Waves Ship Positions

Seven Sins

Last reported at 2014-Jul-22 16:33 UTC. Time now 2014-Jul-23 13:31 UTC.
Position N 43°16' E 006°38'.

Length 43 m; draft 3.1 m.

Type: Pleasure craft. MMSI: 319425000.

Date/timePositionNaut miles runAvg speedWind from/ knotsBaromVisibWave heightAir tempDewpointWater temp
2014-Jul-22 16:33N 43°16' E 006°38'3 3.1
2014-Jul-22 15:33N 43°15' E 006°42'2 1.7
2014-Jul-22 14:25N 43°13' E 006°40'0 0.0
2014-Jul-22 13:31N 43°13' E 006°40'0 0.0
2014-Jul-22 12:31N 43°13' E 006°40'0 0.0
2014-Jul-22 11:31N 43°13' E 006°40'0 0.0
2014-Jul-22 10:31N 43°13' E 006°40'0 0.0
2014-Jul-22 09:31N 43°13' E 006°40'3 3.1
2014-Jul-22 08:33N 43°15' E 006°43'1110.7
2014-Jul-22 07:33N 43°23' E 006°54'1110.5
2014-Jul-22 06:34N 43°30' E 007°04'4 3.5
2014-Jul-22 05:31N 43°33' E 007°05'0 0.0
2014-Jul-22 04:25N 43°33' E 007°05'0 0.0
2014-Jul-22 03:31N 43°33' E 007°05'0 0.0
2014-Jul-22 02:31N 43°33' E 007°05'0 0.0
2014-Jul-22 01:31N 43°33' E 007°05'0 0.0
2014-Jul-22 00:25N 43°33' E 007°05'0 0.0
2014-Jul-21 23:31N 43°33' E 007°05'0 0.0
2014-Jul-21 22:31N 43°33' E 007°05'0 0.0
2014-Jul-21 21:31N 43°33' E 007°05'0 0.0
2014-Jul-21 20:31N 43°33' E 007°05'0 0.0
2014-Jul-21 20:07N 43°33' E 007°05'0 0.0
2014-Jul-21 19:31N 43°33' E 007°05'0 0.0
2014-Jul-21 18:31N 43°33' E 007°05'0 0.0
2014-Jul-21 17:31N 43°33' E 007°05'0 0.0
2014-Jul-21 16:31N 43°33' E 007°05'0 0.0
2014-Jul-21 15:31N 43°33' E 007°05'0 0.2
2014-Jul-21 14:34N 43°33' E 007°06'2 2.0
2014-Jul-21 13:20N 43°31' E 007°04'0 0.0
2014-Jul-21 12:20N 43°31' E 007°04'0 0.0
2014-Jul-21 11:20N 43°31' E 007°04'0 0.0
2014-Jul-21 10:08N 43°31' E 007°04'0 0.0
2014-Jul-21 09:32N 43°31' E 007°04'0 0.0
2014-Jul-21 08:20N 43°31' E 007°04'1 1.1
2014-Jul-21 07:32N 43°32' E 007°04'2 2.2
2014-Jul-21 06:33N 43°33' E 007°07'0 0.0
2014-Jul-21 05:33N 43°33' E 007°07'0 0.0
2014-Jul-21 04:33N 43°33' E 007°07'0 0.0
2014-Jul-21 03:33N 43°33' E 007°07'0 0.0
2014-Jul-21 02:33N 43°33' E 007°07'0 0.0
2014-Jul-21 01:33N 43°33' E 007°07'0 0.0
2014-Jul-21 00:33N 43°33' E 007°07'0 0.0
2014-Jul-20 23:33N 43°33' E 007°07'0 0.0
2014-Jul-20 22:33N 43°33' E 007°07'0 0.0
2014-Jul-20 21:33N 43°33' E 007°07'0 0.0
2014-Jul-20 20:33N 43°33' E 007°07'0 0.0
2014-Jul-20 19:33N 43°33' E 007°07'0 0.0
2014-Jul-20 18:33N 43°33' E 007°07'0 0.0
2014-Jul-20 17:33N 43°33' E 007°07'0 0.0
2014-Jul-20 16:33N 43°33' E 007°07'0 0.0
2014-Jul-20 15:33N 43°33' E 007°07'0 0.0
2014-Jul-20 14:34N 43°33' E 007°07'0 0.0
2014-Jul-20 13:33N 43°33' E 007°07'0 0.1
2014-Jul-20 12:33N 43°33' E 007°07'5 4.9
2014-Jul-20 11:33N 43°35' E 007°13'13 2.1
2014-Jul-20 05:20N 43°44' E 007°25'0 0.0
2014-Jul-20 01:32N 43°44' E 007°25'0 0.0
2014-Jul-19 15:33N 43°44' E 007°25'2 2.2
2014-Jul-19 14:32N 43°42' E 007°23'2 2.3
2014-Jul-19 13:33N 43°42' E 007°20'0 0.0
2014-Jul-19 12:33N 43°42' E 007°20'0 0.0
2014-Jul-19 11:33N 43°42' E 007°20'0 0.1
2014-Jul-19 10:33N 43°42' E 007°20'2 1.3
2014-Jul-19 09:15N 43°43' E 007°22'0 0.0
2014-Jul-19 08:33N 43°43' E 007°22'0 0.0
2014-Jul-19 07:27N 43°43' E 007°22'0 0.0
2014-Jul-19 06:27N 43°43' E 007°22'0 0.0
2014-Jul-19 05:27N 43°43' E 007°22'0 0.0
2014-Jul-19 04:27N 43°43' E 007°22'0 0.0
2014-Jul-19 03:21N 43°43' E 007°22'0 0.0
2014-Jul-19 02:27N 43°43' E 007°22'0 0.0
2014-Jul-19 01:33N 43°43' E 007°22'0 0.0
2014-Jul-19 00:21N 43°43' E 007°22'0 0.0
2014-Jul-18 23:33N 43°43' E 007°22'0 0.0
2014-Jul-18 22:33N 43°43' E 007°22'0 0.0
2014-Jul-18 21:33N 43°43' E 007°22'0 0.0
2014-Jul-18 20:33N 43°43' E 007°22'0 0.0
2014-Jul-18 19:33N 43°43' E 007°22'10 1.3
2014-Jul-18 12:12N 43°47' E 007°34'10 1.2
2014-Jul-18 04:25N 43°49' E 007°47'28 8.8
2014-Jul-18 01:13N 43°55' E 008°25'710.6
2014-Jul-18 00:33N 43°58' E 008°34'1010.4
2014-Jul-17 23:33N 44°02' E 008°47'10 9.9
2014-Jul-17 22:33N 44°06' E 008°60'8 8.1
2014-Jul-17 21:33N 44°11' E 009°09'9 0.7
2014-Jul-17 08:29N 44°19' E 009°14'1 0.1
2014-Jul-16 16:06N 44°18' E 009°13'1 1.6
2014-Jul-16 15:33N 44°17' E 009°13'1010.3
2014-Jul-16 14:33N 44°21' E 008°59'4 3.6
2014-Jul-16 13:22N 44°25' E 008°55'0 0.0
2014-Jul-16 12:22N 44°25' E 008°55'0 0.0
2014-Jul-16 11:13N 44°25' E 008°55'0 0.0
2014-Jul-16 10:22N 44°25' E 008°55'0 0.0
2014-Jul-16 08:28N 44°25' E 008°55'0 0.0
2014-Jul-16 07:28N 44°25' E 008°55'0 0.0
2014-Jul-16 06:28N 44°25' E 008°55'0 0.0
2014-Jul-16 05:28N 44°25' E 008°55'0 0.0
2014-Jul-16 04:28N 44°25' E 008°55'0 0.0
2014-Jul-16 03:22N 44°25' E 008°55'0 0.0
2014-Jul-16 02:31N 44°25' E 008°55'0 0.0
2014-Jul-16 01:22N 44°25' E 008°55'0 0.0
2014-Jul-16 00:25N 44°25' E 008°55'0 0.0
2014-Jul-15 23:22N 44°25' E 008°55'0 0.0
2014-Jul-15 22:04N 44°25' E 008°55'0 0.0
2014-Jul-15 21:28N 44°25' E 008°55'0 0.0
2014-Jul-15 20:22N 44°25' E 008°55'0 0.0
2014-Jul-15 19:25N 44°25' E 008°55'0 0.0
2014-Jul-15 18:25N 44°25' E 008°55'0 0.0
2014-Jul-15 17:28N 44°25' E 008°55'0 0.0
2014-Jul-15 16:22N 44°25' E 008°55'0 0.0
2014-Jul-15 15:25N 44°25' E 008°55'0 0.0
2014-Jul-15 14:22N 44°25' E 008°55'0 0.0
2014-Jul-15 13:31N 44°25' E 008°55'0 0.0
2014-Jul-15 12:28N 44°25' E 008°55'0 0.0
2014-Jul-15 11:25N 44°25' E 008°55'0 0.0
2014-Jul-15 10:31N 44°25' E 008°55'0 0.0
2014-Jul-15 08:28N 44°25' E 008°55'0 0.0
2014-Jul-15 07:28N 44°25' E 008°55'0 0.0
2014-Jul-15 06:28N 44°25' E 008°55'0 0.0
2014-Jul-15 05:28N 44°25' E 008°55'0 0.0
2014-Jul-15 04:19N 44°25' E 008°55'0 0.0
2014-Jul-15 03:28N 44°25' E 008°55'0 0.0
2014-Jul-15 02:28N 44°25' E 008°55'0 0.0
2014-Jul-15 01:28N 44°25' E 008°55'0 0.0
2014-Jul-15 00:31N 44°25' E 008°55'0 0.0
2014-Jul-14 23:31N 44°25' E 008°55'0 0.0
2014-Jul-14 22:31N 44°25' E 008°55'0 0.0
2014-Jul-14 20:28N 44°25' E 008°55'0 0.0
2014-Jul-14 19:31N 44°25' E 008°55'0 0.0
2014-Jul-14 18:28N 44°25' E 008°55'0 0.0
2014-Jul-14 17:16N 44°25' E 008°55'0 0.0
2014-Jul-14 16:28N 44°25' E 008°55'0 0.0
2014-Jul-14 15:28N 44°25' E 008°55'1 1.4
2014-Jul-14 14:33N 44°23' E 008°56'8 7.7
2014-Jul-14 13:33N 44°16' E 008°53'  
Track history (hours):
 
Tides and Currents Weather Stations Pressure Air Temp Water Temp Dewpoint Dewpoint Depression Visibility Wind Speed Wind Dir Waves Ship Positions

Seven Sins

Last reported at 2014-Jul-22 16:33 UTC. Time now 2014-Jul-23 13:31 UTC.
Position N 43°16' E 006°38'.

Length 43 m; draft 3.1 m.

Type: Pleasure craft. MMSI: 319425000.

Date/timePositionNaut miles runAvg speedWind from/ knotsBaromVisibWave heightAir tempDewpointWater temp
2014-Jul-22 16:33N 43°16' E 006°38'3 3.1
2014-Jul-22 15:33N 43°15' E 006°42'2 1.7
2014-Jul-22 14:25N 43°13' E 006°40'0 0.0
2014-Jul-22 13:31N 43°13' E 006°40'0 0.0
2014-Jul-22 12:31N 43°13' E 006°40'0 0.0
2014-Jul-22 11:31N 43°13' E 006°40'0 0.0
2014-Jul-22 10:31N 43°13' E 006°40'0 0.0
2014-Jul-22 09:31N 43°13' E 006°40'3 3.1
2014-Jul-22 08:33N 43°15' E 006°43'1110.7
2014-Jul-22 07:33N 43°23' E 006°54'1110.5
2014-Jul-22 06:34N 43°30' E 007°04'4 3.5
2014-Jul-22 05:31N 43°33' E 007°05'0 0.0
2014-Jul-22 04:25N 43°33' E 007°05'0 0.0
2014-Jul-22 03:31N 43°33' E 007°05'0 0.0
2014-Jul-22 02:31N 43°33' E 007°05'0 0.0
2014-Jul-22 01:31N 43°33' E 007°05'0 0.0
2014-Jul-22 00:25N 43°33' E 007°05'0 0.0
2014-Jul-21 23:31N 43°33' E 007°05'0 0.0
2014-Jul-21 22:31N 43°33' E 007°05'0 0.0
2014-Jul-21 21:31N 43°33' E 007°05'0 0.0
2014-Jul-21 20:31N 43°33' E 007°05'0 0.0
2014-Jul-21 20:07N 43°33' E 007°05'0 0.0
2014-Jul-21 19:31N 43°33' E 007°05'0 0.0
2014-Jul-21 18:31N 43°33' E 007°05'0 0.0
2014-Jul-21 17:31N 43°33' E 007°05'0 0.0
2014-Jul-21 16:31N 43°33' E 007°05'0 0.0
2014-Jul-21 15:31N 43°33' E 007°05'0 0.2
2014-Jul-21 14:34N 43°33' E 007°06'2 2.0
2014-Jul-21 13:20N 43°31' E 007°04'0 0.0
2014-Jul-21 12:20N 43°31' E 007°04'0 0.0
2014-Jul-21 11:20N 43°31' E 007°04'0 0.0
2014-Jul-21 10:08N 43°31' E 007°04'0 0.0
2014-Jul-21 09:32N 43°31' E 007°04'0 0.0
2014-Jul-21 08:20N 43°31' E 007°04'1 1.1
2014-Jul-21 07:32N 43°32' E 007°04'2 2.2
2014-Jul-21 06:33N 43°33' E 007°07'0 0.0
2014-Jul-21 05:33N 43°33' E 007°07'0 0.0
2014-Jul-21 04:33N 43°33' E 007°07'0 0.0
2014-Jul-21 03:33N 43°33' E 007°07'0 0.0
2014-Jul-21 02:33N 43°33' E 007°07'0 0.0
2014-Jul-21 01:33N 43°33' E 007°07'0 0.0
2014-Jul-21 00:33N 43°33' E 007°07'0 0.0
2014-Jul-20 23:33N 43°33' E 007°07'0 0.0
2014-Jul-20 22:33N 43°33' E 007°07'0 0.0
2014-Jul-20 21:33N 43°33' E 007°07'0 0.0
2014-Jul-20 20:33N 43°33' E 007°07'0 0.0
2014-Jul-20 19:33N 43°33' E 007°07'0 0.0
2014-Jul-20 18:33N 43°33' E 007°07'0 0.0
2014-Jul-20 17:33N 43°33' E 007°07'0 0.0
2014-Jul-20 16:33N 43°33' E 007°07'0 0.0
2014-Jul-20 15:33N 43°33' E 007°07'0 0.0
2014-Jul-20 14:34N 43°33' E 007°07'0 0.0
2014-Jul-20 13:33N 43°33' E 007°07'0 0.1
2014-Jul-20 12:33N 43°33' E 007°07'5 4.9
2014-Jul-20 11:33N 43°35' E 007°13'13 2.1
2014-Jul-20 05:20N 43°44' E 007°25'0 0.0
2014-Jul-20 01:32N 43°44' E 007°25'0 0.0
2014-Jul-19 15:33N 43°44' E 007°25'2 2.2
2014-Jul-19 14:32N 43°42' E 007°23'2 2.3
2014-Jul-19 13:33N 43°42' E 007°20'0 0.0
2014-Jul-19 12:33N 43°42' E 007°20'0 0.0
2014-Jul-19 11:33N 43°42' E 007°20'0 0.1
2014-Jul-19 10:33N 43°42' E 007°20'2 1.3
2014-Jul-19 09:15N 43°43' E 007°22'0 0.0
2014-Jul-19 08:33N 43°43' E 007°22'0 0.0
2014-Jul-19 07:27N 43°43' E 007°22'0 0.0
2014-Jul-19 06:27N 43°43' E 007°22'0 0.0
2014-Jul-19 05:27N 43°43' E 007°22'0 0.0
2014-Jul-19 04:27N 43°43' E 007°22'0 0.0
2014-Jul-19 03:21N 43°43' E 007°22'0 0.0
2014-Jul-19 02:27N 43°43' E 007°22'0 0.0
2014-Jul-19 01:33N 43°43' E 007°22'0 0.0
2014-Jul-19 00:21N 43°43' E 007°22'0 0.0
2014-Jul-18 23:33N 43°43' E 007°22'0 0.0
2014-Jul-18 22:33N 43°43' E 007°22'0 0.0
2014-Jul-18 21:33N 43°43' E 007°22'0 0.0
2014-Jul-18 20:33N 43°43' E 007°22'0 0.0
2014-Jul-18 19:33N 43°43' E 007°22'10 1.3
2014-Jul-18 12:12N 43°47' E 007°34'10 1.2
2014-Jul-18 04:25N 43°49' E 007°47'28 8.8
2014-Jul-18 01:13N 43°55' E 008°25'710.6
2014-Jul-18 00:33N 43°58' E 008°34'1010.4
2014-Jul-17 23:33N 44°02' E 008°47'10 9.9
2014-Jul-17 22:33N 44°06' E 008°60'8 8.1
2014-Jul-17 21:33N 44°11' E 009°09'9 0.7
2014-Jul-17 08:29N 44°19' E 009°14'1 0.1
2014-Jul-16 16:06N 44°18' E 009°13'1 1.6
2014-Jul-16 15:33N 44°17' E 009°13'1010.3
2014-Jul-16 14:33N 44°21' E 008°59'4 3.6
2014-Jul-16 13:22N 44°25' E 008°55'0 0.0
2014-Jul-16 12:22N 44°25' E 008°55'0 0.0
2014-Jul-16 11:13N 44°25' E 008°55'0 0.0
2014-Jul-16 10:22N 44°25' E 008°55'0 0.0
2014-Jul-16 08:28N 44°25' E 008°55'0 0.0
2014-Jul-16 07:28N 44°25' E 008°55'0 0.0
2014-Jul-16 06:28N 44°25' E 008°55'0 0.0
2014-Jul-16 05:28N 44°25' E 008°55'0 0.0
2014-Jul-16 04:28N 44°25' E 008°55'0 0.0
2014-Jul-16 03:22N 44°25' E 008°55'0 0.0
2014-Jul-16 02:31N 44°25' E 008°55'0 0.0
2014-Jul-16 01:22N 44°25' E 008°55'0 0.0
2014-Jul-16 00:25N 44°25' E 008°55'0 0.0
2014-Jul-15 23:22N 44°25' E 008°55'0 0.0
2014-Jul-15 22:04N 44°25' E 008°55'0 0.0
2014-Jul-15 21:28N 44°25' E 008°55'0 0.0
2014-Jul-15 20:22N 44°25' E 008°55'0 0.0
2014-Jul-15 19:25N 44°25' E 008°55'0 0.0
2014-Jul-15 18:25N 44°25' E 008°55'0 0.0
2014-Jul-15 17:28N 44°25' E 008°55'0 0.0
2014-Jul-15 16:22N 44°25' E 008°55'0 0.0
2014-Jul-15 15:25N 44°25' E 008°55'0 0.0
2014-Jul-15 14:22N 44°25' E 008°55'0 0.0
2014-Jul-15 13:31N 44°25' E 008°55'0 0.0
2014-Jul-15 12:28N 44°25' E 008°55'0 0.0
2014-Jul-15 11:25N 44°25' E 008°55'0 0.0
2014-Jul-15 10:31N 44°25' E 008°55'0 0.0
2014-Jul-15 08:28N 44°25' E 008°55'0 0.0
2014-Jul-15 07:28N 44°25' E 008°55'0 0.0
2014-Jul-15 06:28N 44°25' E 008°55'0 0.0
2014-Jul-15 05:28N 44°25' E 008°55'0 0.0
2014-Jul-15 04:19N 44°25' E 008°55'0 0.0
2014-Jul-15 03:28N 44°25' E 008°55'0 0.0
2014-Jul-15 02:28N 44°25' E 008°55'0 0.0
2014-Jul-15 01:28N 44°25' E 008°55'0 0.0
2014-Jul-15 00:31N 44°25' E 008°55'0 0.0
2014-Jul-14 23:31N 44°25' E 008°55'0 0.0
2014-Jul-14 22:31N 44°25' E 008°55'0 0.0
2014-Jul-14 20:28N 44°25' E 008°55'0 0.0
2014-Jul-14 19:31N 44°25' E 008°55'0 0.0
2014-Jul-14 18:28N 44°25' E 008°55'0 0.0
2014-Jul-14 17:16N 44°25' E 008°55'0 0.0
2014-Jul-14 16:28N 44°25' E 008°55'0 0.0
2014-Jul-14 15:28N 44°25' E 008°55'1 1.4
2014-Jul-14 14:33N 44°23' E 008°56'8 7.7
2014-Jul-14 13:33N 44°16' E 008°53'  

Dump ship's entire track history